STARLINK-37598, 69357

Orbit data source: Space-Track

STARLINK-37598, 69357 is a payload satellite owned by SpaceX/Seattle (US) in LEO that was launched on Thu, 04 Jun 2026 UTC via an FALCON 9 launch vehicle from the Air Force Eastern Test Range (AFETR). Payload-class satellites include a variety of spacecraft equipped with specific instruments for various scientific and technological missions. These include communications satellites like Starlink; space stations such as the ISS; scientific satellites like the Hubble; Earth observation satellites from companies like Planet Labs, Umbra, and HawkEye 360; GPS; miniature CubeSats for education and research; and military/defense satellites.

Loading next visibility...
Identifier
69357, 2026-123E
Orbit
LEO
Country
Flag of USUS
Related business
Manufacturer
SpaceX/Seattle
Mission
Operational spacecraft
Bus & Motor
STARLINK V2MO, Unknown motor
Mass
575 kg wet, ~530 kg dry
Launch date (UTC)
2026-06-04 (2 months ago)
Launch vehicle
FALCON 9
Launch site
Air Force Eastern Test Range (AFETR)
Object type
Payload
Rocket body
Debris
Shape & HBR
BOX + PAN, 17.7 m
Radar Cross Section
Large (>1 m²)

Expand to show TLE details & history
Last TLE update: 11 hours ago

TLE from 11 hours ago
0 STARLINK-37598
1 69357U 26123E   26207.58331191  .00215841  00000-0  13717-2 0  9994
2 69357  53.1585  45.4026 0000640 119.9308 240.1776 15.75319879  8258
Epoch: 2026-07-26T13:59Z
TLE epoch observation values (Epoch: 2026-07-26T13:59:58.149Z)
Latitude
0.00001°
Longitude
-108.86884°
Altitude
344.852 km
Speed
7.703 km/s
True Right ascension
03h 01m 36s
True Declination
0° 00' 00"
Sunlit
Object was in daylight at epoch
Visualization orbit readout
Latitude
Unknown
Longitude
Unknown
Altitude
Unknown
Speed
Unknown
Apparent Right ascension
Unknown
Apparent Declination
Unknown
Sunlit
N/A
Visualization observer readout
Local Sidereal Time
14:31:11
Azimuth
Unknown
Elevation
Unknown
Doppler factor
Unknown
Orbital elements
Apogee altitude
344.413 km
Perigee altitude
343.552 km
Semi-major axis
6,722.12 km
Eccentricity
0.00006
Inclination
53.1585°
RAAN
45.4026°
Arg. of periapsis
119.9308°
True anomaly
240.17124°
Mean anomaly
240.1776°
Eccentric anomaly
240.17442°
Mean motion
3.93807 °/min
Orbital period
91.42 mins
BSTAR
0.0013717
Loading maneuver chart data...
Computing Atmospheric mass density...
Loading historical data...
Loading historical data...
Loading historical data...
Loading historical data...
Loading historical data...
Loading historical data...
Loading historical data...

Documentation

Showing up to 5 results
|